Regional Weather Roundup
Issued by NWS

Home | Current Version | Previous Version | Text Only | Print | Product List | Glossary On
Versions: 1 2 3 4 5 6 7 8 9 10 11 12 13 14 15 16 17 18 19 20 21 22 23 24 25 26 27 28 29 30 31 32 33 34 35 36 37 38 39 40 41 42 43 44 45 46 47 48 49 50
000
ASUS44 KMEG 200710
RWRTN
TENNESSEE HOURLY STATE WEATHER ROUNDUP
NATIONAL WEATHER SERVICE MEMPHIS TN
100 AM CST MON FEB 20 2017

TNZ002-004-019-021-049-052-054-088>092-200800-
WEST TENNESSEE

CITY           SKY/WX    TMP DP  RH WIND       PRES   REMARKS
MEMPHIS INTL   CLEAR     57  49  74 E5        30.06F
NWS MEMPHIS      N/A     56 N/A N/A MISG        N/A
JACKSON        CLEAR     50  48  93 CALM      30.10S
UNION CITY     CLEAR    N/A N/A N/A CALM      30.08S
PARIS          CLEAR     52  46  82 SE8       30.10F
HUNTINGDON     CLEAR     52  48  87 CALM      30.09F
$$

TNZ008-025-027-028-033-062-065-066-200800-
NORTH MIDDLE TENNESSEE

CITY           SKY/WX    TMP DP  RH WIND       PRES   REMARKS
NASHVILLE      PTCLDY    50  46  86 CALM      30.14S
PORTLAND       CLEAR     46  46 100 CALM      30.14S
CLARKSVILLE    PTCLDY    50  47  89 E3        30.13R FOG
SMYRNA         PTCLDY    45  45 100 CALM      30.15S FOG
COOKEVILLE     CLEAR     41  41 100 CALM      30.14F
GALLATIN       CLEAR     45  43  93 CALM      30.17S FOG
CROSSVILLE     CLOUDY    42  40  92 SE3       30.17F FOG
$$

TNZ061-075-076-078-094-096-097-200800-
SOUTH MIDDLE TENNESSEE

CITY           SKY/WX    TMP DP  RH WIND       PRES   REMARKS
FAYETTEVILLE   CLEAR     52  48  87 CALM      30.13S
TULLAHOMA      CLEAR     45  43  93 CALM      30.14F
WINCHESTER     CLEAR     46  45  93 CALM      30.14F
MCMINNVILLE    CLEAR     45  45 100 CALM      30.15S
COLUMBIA       CLEAR    N/A N/A N/A CALM      30.11S
SHELBYVILLE    CLEAR     50  48  93 E5        30.15S
$$

TNZ017-018-042-046-047-200800-
NORTHEAST TENNESSEE

CITY           SKY/WX    TMP DP  RH WIND       PRES   REMARKS
TRI CITIES     CLEAR     36  35  96 CALM      30.21S FOG
ELIZABETHTON   PTCLDY    37  37 100 CALM      30.22R FOG
$$

TNZ012-013-036-069-073-074-200800-
CENTRAL EAST TENNESSEE

CITY           SKY/WX    TMP DP  RH WIND       PRES   REMARKS
KNOXVILLE      CLEAR     45  42  89 CALM      30.17S
OAK RIDGE      CLEAR     42  40  92 CALM      30.19S
GATLINBURG     CLEAR     37  37 100 CALM      30.18S
MORRISTOWN     CLEAR     45  41  87 CALM      30.18S
JACKSBORO      CLEAR     39  39 100 CALM      30.21S FOG
$$

TNZ083-085-099-200800-
SOUTHEAST TENNESSEE

CITY           SKY/WX    TMP DP  RH WIND       PRES   REMARKS
CHATTANOOGA    CLOUDY    47  44  90 CALM      30.16F
$$

SKY/WX REPORTED AS FAIR MEANS FEW OR NO CLOUDS BELOW
12 THOUSAND FEET.




USA.gov is the U.S. government's official web portal to all federal, state and local government web resources and services.